Wind_Speed
20 20 19 20 21 21 21 21 19 18 18 18 17 16 15 15 15 14 13 12 11 11 11 11 10 10 10 10 10 10 9 9 8 8 8 7 6 6 6 6 6 6 6 6
21 20 20 21 21 21 21 20 19 18 19 19 17 16 15 15 14 14 13 12 11 11 11 11 11 11 11 11 11 11 11 10 9 9 8 8 7 7 7 7 7 7 7 7
21 21 21 21 21 22 22 21 20 20 20 20 19 18 17 16 15 15 14 13 13 12 12 12 12 12 12 12 12 12 11 11 10 10 9 8 8 8 8 8 8 8 8 8
22 22 22 22 22 21 21 21 21 21 21 21 20 19 18 18 17 16 16 15 14 14 13 12 12 13 13 12 12 12 12 11 11 10 10 10 9 9 9 9 9 8 9 9
21 22 22 21 21 21 21 22 23 22 22 22 22 21 19 19 18 18 17 17 16 15 15 14 14 14 14 13 14 13 12 12 11 11 11 11 10 10 10 10 10 9 9 9
21 22 22 21 21 22 22 22 23 24 24 24 22 22 20 19 18 18 18 17 17 17 16 16 15 14 14 15 15 14 13 12 11 11 11 11 10 10 11 11 10 10 10 10
21 21 21 22 22 22 22 22 23 24 24 24 23 24 22 19 19 18 18 18 19 17 16 16 15 14 14 14 14 14 14 13 12 11 11 11 11 11 11 11 11 11 11 11
22 21 22 22 23 23 22 22 23 25 24 24 25 26 23 21 19 19 20 20 19 18 17 17 16 15 15 15 15 15 14 14 12 12 12 12 12 13 13 12 12 12 12 12
21 21 21 23 23 24 23 23 22 24 25 25 26 26 25 23 21 21 21 20 19 19 18 18 17 16 16 16 16 15 14 14 14 14 14 14 14 13 14 14 13 14 14 13
21 21 22 22 23 24 24 23 23 25 26 27 27 26 26 24 23 22 21 21 20 19 19 19 18 17 17 17 18 18 17 17 17 16 16 16 16 15 15 15 15 15 15 14
21 22 21 22 22 23 25 25 25 26 27 28 28 26 24 24 23 23 22 21 21 20 19 19 19 18 18 18 18 19 19 19 18 17 17 18 17 17 16 16 16 16 15 15
21 21 21 21 22 23 24 25 26 27 27 28 28 27 25 25 24 24 24 23 22 22 21 20 19 20 20 20 19 19 20 20 20 19 19 19 19 18 17 17 17 17 16 16
21 21 21 21 22 23 25 25 26 27 27 28 28 26 24 24 23 24 23 23 23 22 22 21 20 21 21 21 21 21 21 22 21 21 21 20 19 18 18 18 19 18 18 18
22 22 22 22 22 23 24 25 26 26 27 27 27 25 24 24 23 23 23 23 23 23 22 21 21 21 21 22 22 22 22 22 22 22 22 20 20 19 19 19 19 19 19 19
23 23 23 23 23 24 24 24 25 26 26 26 26 24 22 23 23 23 23 23 24 22 21 22 22 23 23 23 23 24 23 23 23 23 23 22 21 21 21 21 20 19 20 20
22 23 23 23 23 24 24 24 25 25 25 25 25 23 22 23 24 23 22 23 24 24 23 22 23 24 24 23 24 24 25 24 24 23 23 23 23 22 22 22 21 21 21 21
22 23 23 23 23 24 25 25 25 25 25 25 25 24 23 24 24 23 23 23 23 24 25 24 24 24 25 25 25 26 25 24 24 24 24 24 24 23 23 23 22 22 21 21
22 22 22 22 22 24 23 23 24 25 25 26 26 25 24 24 24 24 24 24 24 24 24 25 25 25 25 26 27 27 26 24 24 25 25 25 25 24 24 23 23 23 22 22
22 22 22 22 23 22 22 22 23 24 24 24 25 24 24 24 25 25 25 24 25 25 25 26 26 26 26 26 27 27 27 26 25 25 25 26 26 25 25 25 24 24 24 24
22 22 22 22 23 22 21 22 23 23 24 23 23 23 24 24 24 24 25 25 25 25 25 25 26 26 26 25 26 26 27 27 26 26 27 26 25 26 26 26 26 26 25 25
22 23 23 23 23 22 23 23 23 23 23 23 23 22 22 23 23 23 24 24 24 25 25 25 25 25 25 26 26 25 26 26 25 26 26 26 25 25 26 27 27 27 27 27
22 22 23 23 22 23 23 24 23 23 23 23 23 23 23 23 24 24 23 24 24 24 25 25 24 24 25 25 25 25 25 25 26 25 25 26 26 26 27 27 27 27 28 28
22 22 22 23 23 23 23 23 23 23 23 23 23 23 23 23 23 23 23 23 24 25 25 25 24 23 23 23 24 24 24 24 25 25 25 25 26 26 26 27 27 27 28 28
21 21 21 21 21 22 22 22 22 23 23 23 22 23 23 23 24 23 23 24 24 25 24 24 24 23 22 21 22 23 24 25 25 25 25 26 26 26 27 27 27 27 27 28
21 20 21 21 20 21 22 22 21 22 22 21 22 22 22 22 22 22 24 24 24 23 24 24 23 22 22 22 22 22 23 24 24 25 26 27 27 28 28 27 27 27 27 27
21 21 21 20 21 20 20 20 19 20 20 21 22 22 22 23 22 22 22 21 22 23 23 24 24 23 23 22 23 23 23 23 24 25 26 26 27 28 27 27 28 28 28 28
Wind_Direction
236 237 237 238 238 239 240 240 238 238 244 249 252 254 255 256 259 260 261 261 263 269 277 286 293 297 299 301 301 298 293 290 292 295 299 293 295 296 295 301 308 313 314 315
235 236 236 237 238 239 240 241 241 240 245 250 252 254 255 256 260 263 262 263 264 267 269 279 286 291 294 296 293 292 293 291 287 287 290 289 289 290 289 292 297 299 306 314
235 236 237 238 239 240 240 242 242 244 248 253 256 255 255 257 259 261 265 265 266 269 271 277 280 282 285 290 287 285 287 287 285 285 283 284 287 289 292 292 295 293 296 299
236 235 236 238 239 239 240 243 243 245 247 251 256 258 255 258 259 259 262 264 264 267 270 272 275 276 277 280 281 280 284 285 284 282 279 283 285 284 284 285 288 289 291 295
237 236 236 236 237 239 242 243 245 247 248 250 254 258 257 258 259 260 263 263 262 265 267 268 271 275 274 273 274 273 276 278 282 281 276 276 283 283 283 283 288 291 289 290
238 236 236 235 234 239 243 246 248 248 250 252 255 259 258 255 258 260 260 259 261 262 265 268 270 272 271 271 273 269 269 272 278 282 273 271 277 282 282 283 286 285 288 290
239 240 238 237 237 241 244 247 250 251 251 254 256 258 259 258 259 261 262 264 262 261 263 265 268 269 271 272 272 266 265 266 270 275 272 271 274 276 278 280 283 284 284 287
243 242 242 240 240 244 247 249 252 255 255 255 255 256 259 259 261 262 263 265 265 263 264 264 265 266 267 268 267 265 263 261 266 271 271 271 270 272 275 274 276 277 277 281
246 245 244 244 244 246 248 251 255 257 257 259 257 257 257 260 263 264 265 265 266 263 263 263 264 263 264 265 266 264 266 262 266 269 269 272 270 271 272 271 274 274 271 273
249 249 249 249 248 247 250 252 255 257 260 262 262 262 260 261 263 264 265 265 266 265 263 262 260 260 262 265 267 266 267 266 266 265 267 268 267 267 269 270 270 271 267 269
251 252 253 253 251 252 250 251 254 257 259 262 265 264 264 263 262 262 263 264 266 267 267 265 261 260 261 263 266 265 264 264 265 263 264 265 265 266 266 268 267 268 268 269
252 255 256 256 255 255 254 255 256 258 260 262 264 266 265 263 261 261 261 261 263 266 266 264 261 258 259 261 263 265 265 265 265 265 264 267 268 267 265 264 266 267 269 270
255 257 258 257 257 257 258 258 259 260 261 263 265 266 264 262 260 260 260 259 261 264 264 262 260 258 258 259 262 263 264 264 262 262 264 266 266 265 266 269 268 269 271 273
257 258 259 259 259 259 258 259 259 260 261 262 264 266 263 262 261 260 258 259 261 262 262 260 257 257 262 262 262 263 264 262 260 260 262 263 266 266 266 268 267 265 268 272
259 259 260 260 260 259 259 259 259 259 261 263 264 264 262 261 262 262 261 260 262 263 261 259 257 260 263 264 264 263 263 262 260 261 261 263 265 267 267 266 267 268 269 269
261 261 261 260 259 259 258 258 259 259 260 261 263 263 263 261 262 263 264 262 260 261 262 262 263 263 263 263 265 264 263 260 258 259 262 262 264 264 263 264 265 266 268 269
261 262 262 262 261 260 258 258 260 261 260 260 261 262 261 261 262 264 265 264 262 263 262 264 267 265 264 264 263 262 260 262 259 261 262 260 263 263 261 262 264 266 268 269
264 263 263 264 264 262 263 260 261 262 261 260 262 263 262 260 260 261 263 264 264 265 264 266 266 266 266 264 263 261 261 261 259 260 260 258 260 260 260 261 263 266 268 269
264 264 265 267 266 265 263 263 264 264 264 262 262 262 263 262 262 261 262 263 265 266 267 267 266 266 266 265 261 259 261 262 262 259 259 258 257 258 259 261 264 266 268 269
265 265 266 267 267 267 263 263 263 263 264 263 262 261 263 262 263 264 263 262 264 266 266 267 266 267 267 267 263 261 262 262 261 261 262 260 259 258 259 261 263 265 268 270
265 266 267 268 268 268 265 264 264 265 266 264 262 262 262 262 263 263 262 261 262 265 265 267 265 265 267 267 263 262 264 264 265 266 265 262 262 261 261 263 264 265 268 271
265 266 266 268 270 269 267 264 264 265 266 266 264 262 260 261 261 261 260 260 262 264 266 267 268 268 267 266 264 262 264 265 265 264 263 263 263 263 263 265 266 267 269 270
266 267 268 269 269 269 268 266 264 264 263 264 263 260 260 261 260 260 258 259 261 263 265 266 268 269 268 268 266 264 265 265 264 263 263 263 263 262 263 264 266 268 270 271
266 266 267 269 268 268 268 268 267 265 264 263 260 259 259 260 260 259 258 260 261 263 264 265 267 269 270 270 269 268 268 268 269 266 264 264 264 262 263 265 266 267 269 271
264 264 265 266 267 267 266 267 267 264 262 263 261 259 260 260 258 258 258 261 261 263 265 266 267 267 267 267 267 269 270 270 269 268 267 265 264 262 263 264 266 267 269 271
265 265 266 265 266 268 268 267 266 263 260 261 262 262 263 263 263 263 262 263 264 263 264 265 265 265 265 267 269 271 271 271 269 269 267 265 265 262 261 263 265 268 270 271
Height
5850 5853 5854 5856 5858 5860 5861 5863 5865 5867 5867 5868 5868 5869 5870 5871 5872 5873 5873 5874 5875 5875 5875 5875 5875 5875 5874 5874 5873 5873 5872 5872 5871 5870 5869 5869 5868 5868 5867 5867 5866 5866 5865 5864
5847 5849 5851 5852 5854 5856 5858 5860 5862 5863 5863 5864 5865 5866 5867 5868 5869 5869 5870 5871 5872 5872 5872 5873 5872 5872 5872 5871 5871 5870 5870 5869 5869 5868 5868 5867 5866 5866 5865 5865 5864 5864 5863 5862
5843 5845 5846 5848 5850 5852 5854 5856 5858 5859 5860 5861 5862 5863 5864 5865 5865 5866 5867 5868 5868 5868 5869 5869 5869 5869 5869 5869 5868 5868 5867 5867 5866 5866 5865 5864 5864 5864 5863 5862 5862 5861 5861 5860
5838 5840 5842 5844 5846 5848 5850 5853 5854 5855 5856 5857 5858 5859 5861 5861 5862 5862 5863 5864 5864 5865 5865 5865 5866 5866 5866 5866 5865 5865 5865 5864 5864 5863 5862 5861 5861 5861 5860 5860 5859 5858 5858 5858
5834 5836 5838 5840 5843 5844 5846 5848 5849 5850 5851 5853 5853 5855 5857 5857 5857 5859 5859 5860 5861 5861 5861 5862 5862 5862 5861 5862 5862 5862 5862 5861 5861 5860 5859 5859 5858 5858 5858 5857 5857 5856 5856 5855
5830 5832 5834 5836 5838 5840 5841 5843 5844 5845 5846 5848 5850 5850 5852 5853 5854 5855 5856 5856 5856 5857 5857 5857 5857 5857 5857 5857 5858 5858 5858 5858 5857 5857 5856 5856 5856 5855 5855 5854 5854 5854 5853 5853
5826 5828 5830 5832 5833 5835 5837 5839 5840 5840 5841 5843 5845 5845 5847 5849 5850 5851 5851 5852 5852 5853 5853 5853 5853 5853 5853 5853 5853 5854 5854 5854 5854 5853 5853 5853 5852 5852 5852 5851 5851 5851 5851 5851
5822 5824 5826 5827 5829 5830 5831 5833 5835 5836 5837 5839 5839 5839 5842 5844 5846 5846 5846 5847 5847 5848 5849 5849 5849 5849 5849 5849 5849 5850 5850 5849 5850 5850 5850 5849 5849 5848 5848 5848 5848 5848 5848 5848
5817 5819 5821 5822 5823 5825 5826 5827 5829 5830 5831 5832 5833 5835 5837 5839 5840 5841 5841 5842 5843 5844 5844 5845 5845 5844 5845 5845 5845 5846 5846 5845 5846 5846 5846 5845 5845 5845 5844 5844 5844 5844 5844 5844
5811 5814 5816 5817 5818 5819 5821 5822 5823 5824 5825 5825 5827 5829 5832 5833 5835 5836 5836 5836 5837 5838 5839 5839 5840 5840 5840 5841 5841 5841 5841 5841 5841 5842 5842 5842 5841 5841 5840 5839 5840 5840 5840 5840
5806 5809 5810 5811 5812 5814 5815 5817 5817 5818 5819 5820 5821 5825 5826 5827 5829 5829 5830 5831 5832 5833 5833 5834 5835 5835 5835 5836 5836 5836 5836 5836 5837 5837 5837 5837 5837 5836 5836 5836 5836 5836 5836 5836
5802 5803 5804 5806 5807 5807 5809 5810 5812 5813 5813 5814 5815 5820 5820 5821 5822 5823 5824 5825 5826 5826 5827 5828 5829 5829 5830 5830 5830 5830 5831 5831 5831 5832 5832 5832 5832 5832 5832 5832 5832 5832 5832 5832
5796 5798 5799 5800 5803 5803 5803 5804 5805 5806 5807 5807 5809 5814 5813 5814 5815 5816 5818 5819 5820 5820 5821 5822 5822 5823 5824 5824 5824 5824 5825 5825 5826 5826 5827 5827 5827 5828 5828 5827 5827 5827 5827 5827
5791 5792 5794 5795 5796 5796 5797 5798 5799 5800 5800 5801 5803 5805 5807 5808 5809 5810 5811 5812 5813 5814 5815 5816 5816 5817 5818 5818 5818 5818 5818 5819 5820 5820 5821 5822 5822 5822 5822 5822 5822 5822 5822 5822
5786 5787 5787 5788 5789 5790 5791 5792 5793 5794 5794 5795 5797 5799 5801 5801 5803 5804 5805 5806 5807 5808 5808 5809 5810 5811 5811 5811 5811 5811 5812 5813 5813 5814 5815 5815 5816 5816 5816 5816 5816 5816 5817 5817
5780 5781 5782 5782 5783 5784 5785 5786 5787 5788 5789 5789 5791 5793 5795 5795 5797 5798 5799 5800 5801 5802 5802 5803 5804 5804 5804 5805 5805 5805 5805 5806 5806 5807 5808 5809 5809 5810 5810 5811 5811 5811 5811 5812
5775 5775 5776 5776 5777 5777 5779 5781 5781 5782 5783 5784 5785 5788 5788 5789 5791 5792 5793 5794 5794 5795 5796 5797 5797 5797 5798 5798 5798 5798 5798 5798 5799 5800 5801 5802 5803 5803 5804 5804 5805 5806 5806 5806
5769 5770 5770 5770 5772 5772 5775 5774 5775 5776 5777 5778 5779 5781 5781 5783 5784 5785 5786 5787 5788 5789 5789 5790 5790 5790 5790 5790 5790 5790 5790 5790 5791 5793 5794 5795 5796 5796 5797 5798 5799 5799 5800 5800
5763 5764 5764 5765 5765 5766 5768 5768 5769 5769 5770 5772 5773 5774 5775 5776 5777 5778 5779 5780 5781 5781 5782 5782 5782 5782 5782 5782 5782 5783 5783 5784 5784 5785 5786 5787 5788 5789 5790 5791 5792 5792 5793 5793
5757 5758 5759 5759 5759 5760 5763 5762 5762 5764 5764 5766 5766 5767 5768 5769 5771 5772 5772 5773 5774 5774 5774 5775 5775 5775 5775 5775 5775 5775 5776 5777 5777 5779 5779 5780 5781 5782 5783 5784 5784 5785 5785 5786
5752 5752 5753 5753 5753 5754 5756 5756 5756 5758 5760 5759 5760 5761 5761 5763 5764 5765 5765 5766 5766 5767 5767 5767 5767 5767 5768 5768 5768 5768 5769 5769 5770 5771 5772 5772 5773 5774 5775 5776 5776 5777 5777 5778
5746 5746 5747 5747 5748 5750 5749 5749 5751 5751 5752 5752 5753 5754 5755 5756 5756 5757 5758 5758 5759 5760 5760 5760 5760 5760 5760 5760 5761 5761 5762 5762 5763 5763 5764 5765 5766 5767 5767 5768 5769 5769 5769 5770
5740 5741 5741 5742 5744 5743 5742 5743 5743 5744 5745 5745 5746 5747 5748 5749 5749 5750 5750 5751 5752 5753 5753 5753 5753 5753 5753 5753 5754 5754 5755 5755 5755 5756 5756 5757 5758 5759 5760 5760 5761 5761 5761 5761
5734 5734 5735 5735 5736 5736 5736 5736 5736 5737 5737 5738 5739 5740 5740 5741 5742 5742 5743 5744 5745 5745 5746 5746 5746 5747 5747 5747 5747 5747 5747 5748 5748 5748 5749 5750 5750 5751 5752 5752 5753 5753 5753 5753
5728 5728 5728 5729 5729 5730 5730 5730 5730 5730 5731 5731 5732 5733 5733 5734 5735 5735 5735 5736 5737 5738 5739 5739 5739 5740 5740 5740 5741 5740 5740 5740 5740 5740 5741 5741 5742 5743 5744 5744 5744 5744 5745 5745
5722 5722 5722 5723 5723 5724 5724 5723 5723 5723 5724 5725 5725 5726 5726 5727 5728 5728 5728 5728 5729 5730 5731 5732 5732 5732 5733 5733 5733 5733 5733 5733 5733 5733 5732 5732 5733 5733 5734 5736 5736 5736 5736 5736